Petersburg, AK

11:56 AM AKDT on March 25, 2017 (GMT -0800)
Johnson Petersburg

Weather History for PAPG - October, 2010

Change the Weather History Date:

Friday, October 1, 2010

  Actual Average Record
Temperature  
Mean Temperature 54 °F -  
Max Temperature 66 °F 49 °F 69 °F (1987)
Min Temperature 42 °F 40 °F 28 °F (1996)
Degree Days  
Heating Degree Days 11    
Growing Degree Days 4 (Base 50)    
Moisture  
Dew Point 45 °F    
Average Humidity 81    
Maximum Humidity 100    
Minimum Humidity 40    
Precipitation  
Precipitation 0.00 in - - ()
Sea Level Pressure  
Sea Level Pressure 29.70 in    
Wind  
Wind Speed 3 mph (SW)    
Max Wind Speed 23 mph    
Max Gust Speed 34 mph    
Visibility 8 miles    
Events      
Averages and records for this station are not official NWS values.
T = Trace of Precipitation, MM = Missing Value Source: NWS Daily Summary

Daily Weather History Graph

Daily Weather History Graph

Search for Another Location

Airport or City:

Trip Planner

Search our weather history database for the weather conditions in past years. The results will help you decide how hot, cold, wet, or windy it might be!

Date:

Astronomy

Oct. 01, 2010 Rise Set
Actual Time 6:55 AM AKDT 6:26 PM AKDT
Civil Twilight 6:17 AM AKDT 7:03 PM AKDT
Nautical Twilight 5:33 AM AKDT 7:47 PM AKDT
Astronomical Twilight 4:47 AM AKDT 8:33 PM AKDT
Moon 11:35 PM AKDT (10/1) 3:54 PM AKDT (10/1)
Length of Visible Light 12h 46m
Length of Day
11h 30m
Last Quarter, 43% of the Moon is Illuminated
Oct 1
Last Quarter
Oct 7
New
Oct 14
First Quarter
Oct 22
Full
Oct 30
Last Quarter

Hourly Weather History & Observations

Time (AKDT) Temp. Windchill Dew Point Humidity Pressure Visibility Wind Dir Wind Speed Gust Speed Precip Events Conditions
12:16 AM 42.8 °F - 39.2 °F 87% 29.78 in 1.8 mi Calm Calm - N/A   Mostly Cloudy
12:36 AM 42.8 °F - 42.8 °F 100% 29.77 in 2.0 mi Calm Calm - N/A   Mostly Cloudy
12:56 AM 42.8 °F - 41.0 °F 93% 29.77 in 0.8 mi Calm Calm - N/A   Overcast
1:16 AM 44.6 °F - 42.8 °F 93% 29.76 in 3.0 mi Calm Calm - N/A   Mostly Cloudy
1:36 AM 44.6 °F - 42.8 °F 93% 29.75 in 2.5 mi Calm Calm - N/A   Mostly Cloudy
1:56 AM 44.6 °F - 42.8 °F 93% 29.75 in 3.0 mi Calm Calm - N/A   Partly Cloudy
2:16 AM 44.6 °F - 42.8 °F 93% 29.73 in 10.0 mi Calm Calm - N/A   Clear
2:36 AM 42.8 °F - 41.0 °F 93% 29.73 in 7.0 mi Calm Calm - N/A   Clear
2:56 AM 44.6 °F 42.2 °F 42.8 °F 93% 29.72 in 10.0 mi South 4.6 mph - N/A   Clear
3:16 AM 42.8 °F - 41.0 °F 93% 29.72 in 10.0 mi Calm Calm - N/A   Clear
3:36 AM 42.8 °F - 41.0 °F 93% 29.70 in 10.0 mi Calm Calm - N/A   Clear
3:56 AM 42.8 °F - 42.8 °F 100% 29.70 in 10.0 mi Calm Calm - N/A   Clear
4:16 AM 42.8 °F - 41.0 °F 93% 29.69 in 10.0 mi Calm Calm - N/A   Clear
4:36 AM 42.8 °F - 41.0 °F 93% 29.68 in 10.0 mi Calm Calm - N/A   Clear
4:56 AM 44.6 °F - 41.0 °F 87% 29.68 in 10.0 mi Calm Calm - N/A   Clear
5:16 AM 44.6 °F 42.2 °F 41.0 °F 87% 29.67 in 10.0 mi WSW 4.6 mph - N/A   Clear
5:36 AM 44.6 °F - 41.0 °F 87% 29.66 in 10.0 mi Calm Calm - N/A   Clear
5:56 AM 44.6 °F - 42.8 °F 93% 29.66 in 10.0 mi Calm Calm - N/A   Clear
6:16 AM 44.6 °F - 42.8 °F 93% 29.65 in 10.0 mi Calm Calm - N/A   Clear
6:36 AM 46.4 °F - 42.8 °F 87% 29.65 in 10.0 mi Calm Calm - N/A   Clear
6:56 AM 46.4 °F 45.2 °F 42.8 °F 87% 29.65 in 10.0 mi West 3.5 mph - N/A   Scattered Clouds
7:16 AM 46.4 °F 45.2 °F 42.8 °F 87% 29.65 in 10.0 mi NE 3.5 mph - N/A   Scattered Clouds
7:36 AM 44.6 °F - 42.8 °F 93% 29.64 in 10.0 mi Calm Calm - N/A   Scattered Clouds
7:56 AM 44.6 °F - 42.8 °F 93% 29.64 in 10.0 mi Calm Calm - N/A   Scattered Clouds
8:16 AM 44.6 °F - 42.8 °F 93% 29.64 in 10.0 mi Calm Calm - N/A   Scattered Clouds
8:36 AM 46.4 °F 44.3 °F 44.6 °F 93% 29.65 in 10.0 mi West 4.6 mph - N/A   Scattered Clouds
8:56 AM 50.0 °F - 44.6 °F 82% 29.65 in 10.0 mi WNW 6.9 mph - N/A   Mostly Cloudy
9:16 AM 50.0 °F - 44.6 °F 82% 29.65 in 10.0 mi West 5.8 mph - N/A   Mostly Cloudy
9:36 AM 53.6 °F - 46.4 °F 77% 29.65 in 10.0 mi West 5.8 mph - N/A   Mostly Cloudy
9:56 AM 51.8 °F - 46.4 °F 82% 29.65 in 10.0 mi WNW 8.1 mph - N/A   Clear
10:16 AM 53.6 °F - 46.4 °F 77% 29.65 in 10.0 mi West 6.9 mph - N/A   Clear
10:36 AM 55.4 °F - 46.4 °F 72% 29.65 in 10.0 mi WNW 4.6 mph - N/A   Clear
10:56 AM 59.0 °F - 48.2 °F 67% 29.65 in 10.0 mi WNW 4.6 mph - N/A   Clear
11:16 AM 62.6 °F - 48.2 °F 59% 29.65 in 10.0 mi Calm Calm - N/A   Clear
11:36 AM 64.4 °F - 46.4 °F 52% 29.65 in 10.0 mi West 3.5 mph - N/A   Clear
11:56 AM 66.2 °F - 42.8 °F 43% 29.65 in 10.0 mi SE 9.2 mph 17.3 mph N/A   Clear
12:16 PM 66.2 °F - 42.8 °F 43% 29.65 in 10.0 mi ESE 23.0 mph 34.5 mph N/A   Clear
12:36 PM 66.2 °F - 41.0 °F 40% 29.66 in 10.0 mi SSE 9.2 mph 25.3 mph N/A   Clear
12:56 PM 66.2 °F - 41.0 °F 40% 29.67 in 10.0 mi SE 12.7 mph 21.9 mph N/A   Mostly Cloudy
1:16 PM 66.2 °F - 42.8 °F 43% 29.66 in 10.0 mi ENE 3.5 mph 23.0 mph N/A   Mostly Cloudy
1:36 PM 64.4 °F - 42.8 °F 45% 29.65 in 10.0 mi NE 12.7 mph 17.3 mph N/A   Mostly Cloudy
1:56 PM 64.4 °F - 39.2 °F 40% 29.68 in 10.0 mi SE 13.8 mph 20.7 mph N/A   Overcast
2:16 PM 57.2 °F - 46.4 °F 67% 29.71 in 10.0 mi SSW 11.5 mph 23.0 mph N/A   Overcast
2:36 PM 55.4 °F - 48.2 °F 77% 29.73 in 10.0 mi WSW 9.2 mph - N/A   Overcast
2:56 PM 55.4 °F - 48.2 °F 77% 29.74 in 7.0 mi SE 6.9 mph - N/A   Mostly Cloudy
3:16 PM 55.4 °F - 48.2 °F 77% 29.75 in 7.0 mi Calm Calm - N/A   Mostly Cloudy
3:36 PM 53.6 °F - 51.8 °F 94% 29.76 in 7.0 mi Calm Calm - N/A   Mostly Cloudy
3:56 PM 53.6 °F - 50.0 °F 88% 29.77 in 5.0 mi NNW 5.8 mph - N/A   Mostly Cloudy
4:16 PM 53.6 °F - 50.0 °F 88% 29.77 in 5.0 mi North 8.1 mph - N/A   Mostly Cloudy
4:36 PM 53.6 °F - 51.8 °F 94% 29.78 in 5.0 mi SE 3.5 mph - N/A   Mostly Cloudy
4:56 PM 51.8 °F - 50.0 °F 94% 29.78 in 5.0 mi Calm Calm - N/A   Overcast
5:16 PM 53.6 °F - 50.0 °F 88% 29.78 in 5.0 mi SSE 6.9 mph - N/A   Overcast
5:36 PM 55.4 °F - 48.2 °F 77% 29.78 in 5.0 mi South 12.7 mph 19.6 mph N/A   Overcast
5:56 PM 55.4 °F - 46.4 °F 72% 29.78 in 10.0 mi South 9.2 mph - N/A   Mostly Cloudy
6:16 PM 51.8 °F - 48.2 °F 88% 29.78 in 10.0 mi NNE 3.5 mph - N/A   Mostly Cloudy
6:36 PM 51.8 °F - 46.4 °F 82% 29.78 in 10.0 mi Calm Calm - N/A   Mostly Cloudy
6:56 PM 48.2 °F - 48.2 °F 100% 29.79 in 10.0 mi Calm Calm - N/A   Mostly Cloudy
7:16 PM 51.8 °F - 48.2 °F 88% 29.78 in 10.0 mi ENE 3.5 mph - N/A   Mostly Cloudy
7:36 PM 51.8 °F - 46.4 °F 82% 29.79 in 10.0 mi WSW 6.9 mph - N/A   Mostly Cloudy
7:56 PM 48.2 °F - 42.8 °F 82% 29.82 in 7.0 mi South 9.2 mph 27.6 mph N/A   Mostly Cloudy
8:16 PM 50.0 °F - 44.6 °F 82% 29.82 in 7.0 mi ESE 9.2 mph 18.4 mph N/A   Mostly Cloudy
8:36 PM 50.0 °F - 46.4 °F 87% 29.82 in 7.0 mi WSW 6.9 mph - N/A   Mostly Cloudy
8:56 PM 51.8 °F - 46.4 °F 82% 29.83 in 10.0 mi SSW 11.5 mph - N/A   Mostly Cloudy
9:16 PM 51.8 °F - 46.4 °F 82% 29.83 in 10.0 mi South 16.1 mph 19.6 mph N/A   Mostly Cloudy
9:36 PM 51.8 °F - 46.4 °F 82% 29.84 in 10.0 mi SE 12.7 mph 17.3 mph N/A   Mostly Cloudy
9:56 PM 51.8 °F - 44.6 °F 76% 29.85 in 10.0 mi SE 13.8 mph 21.9 mph N/A   Mostly Cloudy
10:16 PM 51.8 °F - 44.6 °F 76% 29.86 in 10.0 mi SE 9.2 mph 18.4 mph N/A   Overcast
10:36 PM 51.8 °F - 46.4 °F 82% 29.87 in 10.0 mi SSE 9.2 mph 16.1 mph N/A   Overcast
10:56 PM 50.0 °F - 46.4 °F 87% 29.88 in 8.0 mi East 10.4 mph - N/A   Overcast
11:16 PM 50.0 °F - 42.8 °F 76% 29.89 in 10.0 mi SE 11.5 mph - N/A   Mostly Cloudy
11:36 PM 48.2 °F - 42.8 °F 82% 29.90 in 8.0 mi SSW 6.9 mph 16.1 mph N/A   Overcast
11:56 PM 48.2 °F - 44.6 °F 87% 29.91 in 10.0 mi East 8.1 mph - N/A   Mostly Cloudy